Location: Newark
(3.0500°N, 36.0167°E)
Time: 03:52:33
(UTC+00:00)

Transit 2A Rocket - Pass Details

Date: 22 August 2019
Orbit: 592 x 911 km, 66.7° (Epoch: 19 September)

Event Time Altitude Azimuth Distance (km) Brightness Sun altitude
Rises 16:02:57 0° 220° (SW) 3,535 8.8 -5.3°
Reaches altitude 10° 16:05:47 10° 231° (SW) 2,591 8.3 -6.0°
Maximum altitude 16:10:59 30° 290° (WNW) 1,553 7.6 -7.2°
Drops below altitude 10° 16:16:02 10° 349° (N) 2,507 8.0 -8.5°
Sets 16:18:46 0° 0° (N) 3,402 8.5 -9.1°
